"Date","1_4AHN","Flag_1_4AHN","2_5EHN","Flag_2_5EHN","3_5ECN","Flag_3_5ECN","4_5AHN","Flag_4_5AHN","5_4ACS","Flag_5_4ACS","6_5ACS","Flag_6_5ACS","7_4ECN","Flag_7_4ECN","8_4ACN","Flag_8_4ACN","9_4EHN","Flag_9_4EHN","10_3ACD","Flag_10_3ACD","11_3ECN","Flag_11_3ECN","12_3ACN","Flag_12_3ACN","13_3AHN","Flag_13_3AHN","14_5ACN","Flag_14_5ACN","15_4ACD","Flag_15_4ACD","16_5ACD","Flag_16_5ACD","17_3ACS","Flag_17_3ACS","18_3EHN","Flag_18_3EHN","19_1EHN","Flag_19_1EHN","20_1AHN","Flag_20_1AHN","21_2EHN","Flag_21_2EHN","22_1ACN","Flag_22_1ACN","23_2ACD","Flag_23_2ACD","24_1ACS","Flag_24_1ACS","25_2ACN","Flag_25_2ACN","26_1ECN","Flag_26_1ECN","27_2ECN","Flag_27_2ECN","28_1ACD","Flag_28_1ACD","29_2ACS","Flag_29_2ACS","30_2AHN","Flag_30_2AHN"
"07/04/2006","14.39","0","17.84","0","23.02","0","9.56","0","13.69","0","12.19","0","17","0","16.69","0","18.84","0","15.79","0","20.51","0","16.19","0","14.3","0","16.19","0","15.79","0","15.79","0","15.19","0","16.03","0","21.37","0","12.95","0","20.12","0","12.19","0","15.79","0","3.69","0","16.69","0","23","0","15.5","0","15.79","0","13.69","0","12.3","0"
"07/05/2006","14.39","0","17.82","0","22.99","0","9.57","0","15.19","1","12.21","0","17.13","2","16.71","2","9.63","0","9.95","0","17.13","2","16.21","2","14.39","1","16.21","2","15.6","0","16.12","0","15.19","0","15.98","0","21.33","0","12.93","0","20.08","0","12.21","0","15.12","0","5.19","2","16.71","2","22.71","0","15.63","0","15.6","1","13.69","1","14.39","1"
"07/06/2006","14.38","0","17.78","0","22.95","0","9.58","0","15.18","1","12.21","0","17.16","2","16.71","2","9.71","0","9.95","0","17.16","2","16.21","2","14.38","1","16.21","2","15.14","0","15.88","0","15.18","0","15.92","0","21.25","0","12.89","0","20.04","0","12.21","0","15.16","0","5.18","2","16.71","2","22.4","0","15.66","0","15.14","1","13.68","1","14.38","1"
"07/07/2006","14.53","0","18.24","0","23.36","0","9.59","0","15.27","1","10.47","0","17.07","2","16.74","2","9.74","0","9.69","0","17.07","2","16.24","2","14.53","1","16.24","2","14.85","0","15.67","0","15.27","0","16.7","0","21.75","0","13.14","0","20.46","0","12.24","0","14.76","0","5.27","2","16.74","2","22.09","0","15.57","0","14.85","1","13.77","1","14.53","1"
"07/08/2006","14.45","0","18.03","0","23.11","0","9.59","0","15.24","1","10.46","0","16.92","2","16.62","2","9.98","0","9.51","0","16.92","2","16.12","2","14.45","1","16.12","2","14.7","0","15.74","0","15.24","0","16.22","0","21.44","0","13.04","0","20.26","0","12.12","0","15.21","0","5.24","2","16.62","2","21.85","0","15.42","0","14.7","1","13.74","1","14.45","1"
"07/09/2006","14.29","0","17.61","0","22.85","0","9.5","0","15.1","1","10.37","0","16.63","2","16.59","2","9.91","0","9.75","0","16.63","2","16.09","2","14.29","1","16.09","2","15.25","0","15.76","0","15.1","0","15.72","0","21.16","0","12.85","0","19.95","0","12.09","0","15.71","0","5.1","2","16.59","2","21.65","0","15.13","0","15.25","1","13.6","1","14.29","1"
"07/10/2006","14.3","0","17.58","0","22.86","0","9.53","0","15.14","1","10.41","0","16.59","2","16.75","2","10.73","0","10.34","0","16.59","2","16.25","2","14.3","1","16.25","2","16.61","0","16.53","0","15.14","0","15.67","0","21.26","0","12.84","0","19.9","0","12.25","0","15.5","0","5.14","2","16.75","2","21.81","0","15.09","0","16.61","1","13.64","1","14.3","1"
"07/11/2006","14.36","0","17.67","0","22.82","0","9.61","0","15.19","1","10.49","0","16.57","2","16.83","2","10.79","0","10.36","0","16.57","2","16.33","2","14.36","1","16.33","2","16.57","0","16.53","0","15.19","0","15.65","0","21.12","0","12.8","0","19.88","0","12.33","0","15.27","0","5.19","2","16.83","2","21.72","0","15.07","0","16.57","1","13.69","1","14.36","1"
"07/12/2006","14.32","0","17.52","0","22.69","0","9.68","0","15.15","1","10.5","0","16.43","2","16.73","2","10.66","0","10.31","0","16.43","2","16.23","2","14.32","1","16.23","2","16.24","0","16.81","0","15.15","0","15.54","0","20.79","0","12.7","0","19.76","0","12.23","0","15.34","0","5.15","2","16.73","2","21.44","0","14.93","0","16.24","1","13.65","1","14.32","1"
"07/13/2006","14.32","0","17.48","0","22.57","0","9.85","0","15.19","1","10.59","0","16.38","2","16.59","2","10.51","0","10.25","0","16.38","2","16.09","2","14.32","1","16.09","2","15.93","0","17.07","0","15.19","0","15.47","0","20.43","0","12.65","0","19.72","0","12.09","0","15.37","0","5.19","2","16.59","2","21.14","0","14.88","0","15.93","1","13.69","1","14.32","1"
"07/14/2006","14.76","0","18.85","0","25.2","0","12.33","0","15.18","1","10.68","0","16.11","1","18.68","1","10.72","0","10.48","0","16.11","0","18.68","0","14.45","0","18.13","0","15.63","0","17.62","0","15.18","0","15.33","0","20.52","0","12.46","0","19.72","0","14.11","0","15.35","0","4.95","0","18.68","1","21.45","0","14.83","0","15.63","1","13.68","1","14.76","1"
"07/15/2006","15.01","0","19.78","0","26.1","0","13.31","0","15.2","1","10.74","0","17.1","1","20.55","1","11.03","0","10.23","0","17.1","0","20.55","0","14.29","0","20.64","0","15.22","0","17.54","0","15.2","0","15.39","0","21.7","0","12.39","0","20.16","0","16","0","14.93","0","6.62","0","20.55","1","22.9","0","15.11","0","15.22","1","13.7","1","15.01","1"
"07/16/2006","14.85","0","19.35","0","25.31","0","12.91","0","15.21","1","10.76","0","15.69","1","20.09","1","10.88","0","9.95","0","15.69","0","20.09","0","14.3","0","19.69","0","14.65","0","17.09","0","15.21","0","15.35","0","21.06","0","12.37","0","20","0","15.19","0","14.43","0","6.44","0","20.09","1","22.4","0","14.86","0","14.65","1","13.71","1","14.85","1"
"07/17/2006","14.52","0","18.74","0","24.2","0","12.07","0","15.14","1","10.7","0","14.79","1","19.49","1","10.59","0","9.59","0","14.79","0","19.49","0","14.36","0","17.48","0","13.88","0","16.59","0","15.14","0","15.21","0","20.29","0","12.24","0","19.68","0","14.29","0","13.84","0","6.16","0","19.49","1","21.82","0","14.56","0","13.88","1","13.64","1","14.52","1"
"07/18/2006","14.15","0","18","0","22.7","0","11.31","0","15.02","1","10.59","0","14.15","1","18.68","1","10.27","0","9.24","0","14.15","0","18.68","0","14.32","0","15.22","0","13.09","0","16.09","0","15.02","0","14.89","0","19.37","0","11.97","0","19.14","0","13.48","0","13.33","0","5.81","0","18.68","1","21.15","0","14.09","0","13.09","1","13.52","1","14.15","1"
"07/19/2006","13.71","0","17.07","0","20.95","0","10.74","0","14.88","1","10.44","0","13.65","1","17.12","1","10","0","9.62","0","13.65","0","17.12","0","14.32","0","13.56","0","12.43","0","15.47","0","14.88","0","14.41","0","18.35","0","11.6","0","18.35","0","12.65","0","12.88","0","5.49","0","17.12","1","20.23","0","13.49","0","12.43","1","13.38","1","13.71","1"
"07/20/2006","13.92","0","17.55","0","22.35","0","11.3","0","14.76","1","10.91","0","15.37","1","15.61","1","9.86","0","9.74","0","15.37","0","15.61","0","13.92","1","13.21","0","11.85","0","14.89","0","14.76","0","14.06","0","17.44","0","11.27","0","17.69","0","12.03","0","12.49","0","5.3","0","15.61","1","19.22","0","13","0","11.85","1","13.26","1","13.92","1"
"07/21/2006","14.51","0","19.81","0","25.03","0","12.02","0","14.74","1","11.47","0","17.81","1","18.91","1","9.74","0","9.5","0","17.81","0","18.91","0","14.51","1","14.52","0","11.33","0","14.51","0","14.74","0","14.13","0","19.72","0","15.35","0","20.82","0","14.11","0","12.15","0","6.13","0","18.91","1","20.03","0","13.25","0","11.33","1","13.24","1","14.51","1"
"07/22/2006","14.35","0","19.8","0","24.47","0","11.85","0","14.75","1","11.32","0","16.65","1","20.41","1","9.59","0","9.24","0","16.65","0","20.41","0","14.35","1","14.57","0","10.85","0","14.75","0","14.75","0","14.55","0","22.1","0","17.5","0","23.1","0","15.36","0","11.84","0","6.8","0","20.41","1","22.3","0","13.93","0","10.85","1","13.25","1","14.35","1"
"07/23/2006","14.28","0","19.47","0","23.87","0","11.76","0","14.84","1","11.25","0","15.64","1","19.95","1","9.44","0","8.98","0","15.64","0","19.95","0","14.28","1","14.41","0","10.42","0","15.1","0","14.84","0","14.73","0","21.51","0","16.69","0","22.66","0","14.77","0","11.57","0","6.7","0","19.95","1","21.94","0","13.87","0","10.42","1","13.34","1","14.28","1"
"07/24/2006","14.15","0","19.05","0","22.95","0","11.54","0","14.84","1","11.11","0","14.88","1","19.36","1","9.31","0","8.74","0","14.88","0","19.36","0","14.15","1","14","0","10.08","0","14.8","0","14.84","0","14.77","0","20.83","0","15.87","0","22.2","0","14.06","0","11.34","0","6.56","0","19.36","1","21.47","0","13.74","0","10.08","1","13.34","1","14.15","1"
"07/25/2006","13.98","0","18.53","0","21.66","0","11.23","0","14.8","1","10.93","0","14.25","1","18.52","1","9.2","0","8.55","0","14.25","0","18.52","0","13.98","1","13.47","0","9.83","0","14.49","0","14.8","0","14.7","0","20.09","0","14.9","0","21.7","0","13.37","0","11.11","0","6.36","0","18.52","1","20.98","0","13.57","0","9.83","1","13.3","1","13.98","1"
"07/26/2006","13.79","0","17.99","0","20.93","0","10.97","0","14.72","1","10.74","0","13.84","1","17.36","1","9.12","2","8.43","2","13.84","0","17.36","0","13.79","1","13.13","0","9.71","2","14.16","2","14.72","0","14.55","0","19.41","0","14.06","0","21.17","0","12.83","0","10.86","2","6.17","0","17.36","1","20.5","0","13.32","0","9.71","2","13.22","1","13.79","1"
"07/27/2006","13.72","0","17.61","0","20.26","0","10.86","0","14.8","1","10.7","0","13.74","1","16.27","1","9","0","8.29","0","13.74","0","16.27","0","13.72","1","12.84","0","9.52","0","13.92","0","14.8","0","14.6","0","18.74","0","13.39","0","20.65","0","12.39","0","10.83","0","5.95","0","16.27","1","20.03","0","13.3","0","9.52","1","13.3","1","13.72","1"
"07/28/2006","13.47","0","16.95","0","19.17","0","10.6","0","14.82","1","10.53","0","13.55","1","15.4","1","8.96","0","8.23","0","13.55","0","15.4","0","13.47","1","12.26","0","9.44","0","11.5","0","14.82","0","14.49","0","17.52","0","12.53","0","19.5","0","11.91","0","11.5","0","5.66","0","15.4","1","19.16","0","13.07","0","9.44","1","13.32","1","13.47","1"
"07/29/2006","13.14","0","16.28","0","18.17","0","10.33","0","14.79","1","10.32","0","13.3","1","14.86","1","9.54","0","8.74","0","13.3","0","14.86","0","13.14","1","11.78","0","10.65","0","12.94","0","14.79","0","14.28","0","16.28","0","11.72","0","18.23","0","11.49","0","12.94","0","5.37","0","14.86","1","17.54","0","12.71","0","10.65","1","13.29","1","13.14","1"
"07/30/2006","12.86","0","15.84","0","17.41","0","10.11","0","14.72","1","10.15","0","13.09","1","14.49","1","10","0","9.19","0","13.09","0","14.49","0","12.86","1","11.24","0","11.92","0","12.73","0","14.72","0","14.06","0","15.35","0","11.17","0","17.21","0","11.18","0","12.73","0","5.18","0","14.49","1","16.41","0","12.4","0","11.92","1","13.22","1","12.86","1"
"07/31/2006","12.59","0","15.59","0","16.91","0","9.93","0","14.6","1","9.98","0","12.91","1","14.2","1","9.91","0","9.09","0","12.91","0","14.2","0","12.59","1","10.93","0","11.78","0","12.61","0","14.6","0","13.83","0","14.71","0","10.82","0","16.53","0","10.93","0","12.61","0","5.1","0","14.2","1","15.9","0","12.14","0","11.78","1","13.1","1","12.59","1"
"08/01/2006","12.31","0","15.27","0","16.51","0","9.74","0","14.4","1","9.81","0","12.72","1","13.9","1","9.83","0","9.02","0","12.72","0","13.9","0","13.47","0","10.61","0","11.65","0","12.45","0","14.4","0","13.57","0","14.2","0","10.54","0","16","0","10.71","0","12.45","0","5.04","0","13.9","1","15.44","0","11.85","0","11.65","1","12.9","1","12.31","1"
"08/02/2006","12.13","0","15.02","0","16.19","0","9.63","0","14.29","1","9.71","0","12.64","1","13.71","1","12.78","0","12.78","0","12.64","0","13.71","0","13.14","0","10.39","0","12.78","0","12.78","0","14.29","0","13.4","0","13.84","0","10.37","0","15.66","0","10.57","0","12.78","0","5","0","13.71","1","15.08","0","11.65","0","12.78","1","12.79","1","12.13","1"
"08/03/2006","11.99","0","14.88","0","15.9","0","9.55","0","13.89","1","9.64","0","12.55","1","13.58","1","12.62","0","12.62","0","12.55","0","13.58","0","12.86","0","10.27","0","12.62","0","12.62","0","13.89","0","13.3","0","13.54","0","10.25","0","15.42","0","10.48","0","12.62","0","10.83","0","15.16","0","14.8","0","11.28","0","12.62","1","12.81","0","11.99","1"
"08/04/2006","12.05","0","19.18","0","22.38","0","11.01","0","17.33","1","9.63","0","19.57","1","19.82","1","15.81","0","15.81","0","19.57","0","19.82","0","12.59","0","18.56","0","15.81","0","15.81","0","17.33","0","13.26","0","14.16","0","10.28","0","17.35","0","11.66","0","15.81","0","10.96","0","15.63","0","16.86","0","11.63","0","15.81","1","12.77","0","12.05","1"
"08/05/2006","12","0","21.08","0","24.84","0","11.39","0","20.03","1","9.53","0","18.85","1","19.29","1","15.36","0","15.36","0","18.85","0","19.29","0","13.67","0","17.01","0","15.36","0","15.36","0","20.03","0","13.08","0","15.4","0","10.22","0","19.35","0","12.18","0","15.36","0","11.09","0","16.24","0","20.75","0","12.15","0","15.36","1","12.7","0","12","1"
"08/06/2006","11.99","0","20.58","0","24.11","0","11.22","0","19.58","1","9.54","0","18.26","1","18.71","1","14.96","0","14.96","0","18.26","0","18.71","0","13.32","0","15.96","0","14.96","0","14.96","0","19.58","0","13.1","0","15.31","0","10.25","0","19.14","0","11.74","0","14.96","0","11.11","0","16.03","0","20.45","0","12.07","0","14.96","1","12.69","0","11.99","1"
"08/07/2006","12.08","0","20.2","0","23.31","0","11.15","0","19","1","9.63","0","17.35","1","18.13","1","14.71","0","14.71","0","17.35","0","18.13","0","13.17","0","14.89","0","14.71","0","14.71","0","19","0","13.28","0","15.23","0","10.38","0","19.11","0","11.53","0","14.71","0","11.3","0","16.14","0","20.15","0","12.16","0","14.71","1","12.85","0","12.08","1"
"08/08/2006","12.12","0","19.46","0","21.74","0","10.9","0","17.2","1","9.67","0","16.08","1","17.22","1","14.41","0","14.41","0","16.08","0","17.22","0","12.97","0","14.09","0","14.41","0","14.41","0","17.2","0","13.37","0","14.92","0","10.43","0","18.7","0","11.28","0","14.41","0","11.37","0","16.16","0","19.66","0","12.15","0","14.41","1","12.92","0","12.12","1"
"08/09/2006","12.23","0","17.45","0","18.41","0","10.4","0","15.83","1","9.79","0","13.3","0","9.61","0","13.75","0","13.75","0","14.29","0","15.52","0","12.77","0","12.29","0","13.75","0","13.75","0","15.83","0","13.45","0","14.37","0","10.45","0","17.83","0","11.01","0","13.75","0","11.35","0","16.13","0","18.6","0","12.03","0","13.75","1","12.97","0","12.23","1"
"08/10/2006","12.12","0","16.42","0","17.27","0","10.09","0","14.98","1","9.69","0","12.94","0","9.24","0","13.33","0","13.33","0","13.67","0","14.96","0","12.5","0","11.71","0","13.33","0","13.33","0","14.98","0","13.42","0","13.78","0","10.36","0","16.91","0","10.74","0","13.33","0","11.18","0","15.91","0","16.77","0","11.79","0","13.33","1","12.94","0","12.12","1"
"08/11/2006","11.98","0","15.54","0","14.94","0","9.79","0","14.34","1","9.96","0","12.58","0","8.95","0","12.86","0","12.86","0","13.12","0","14.34","0","12.2","0","11.06","0","12.86","0","12.86","0","14.34","0","13.28","0","13.3","0","10.19","0","16.12","0","10.5","0","12.86","0","10.96","0","15.56","0","15.55","0","11.46","0","12.86","1","12.77","0","11.98","1"
"08/12/2006","11.82","0","15.16","0","14.29","0","9.58","0","13.9","1","10.24","0","12.34","0","8.79","0","12.55","0","12.55","0","12.82","0","13.92","0","11.95","0","10.7","0","12.55","0","12.55","0","13.9","0","13.11","0","12.99","0","10.02","0","15.57","0","10.33","0","12.55","0","10.78","0","15.22","0","15.01","0","11.19","0","12.55","1","12.6","0","11.82","1"
"08/13/2006","11.7","0","14.93","0","14.07","0","9.45","0","13.65","1","10.17","0","12.2","0","8.71","0","12.35","0","12.35","0","12.65","0","13.67","0","11.79","0","10.51","0","12.35","0","12.35","0","13.65","0","13","0","12.81","0","9.92","0","15.24","0","10.22","0","12.35","0","10.66","0","14.97","0","14.74","0","11.02","0","12.35","1","12.47","0","11.7","1"
"08/14/2006","11.6","0","14.77","0","13.91","0","9.38","0","13.46","1","10.1","0","12.08","0","8.64","0","12.22","0","12.22","0","12.5","0","13.5","0","11.68","0","10.37","0","12.22","0","12.22","0","13.46","0","12.9","0","12.65","0","9.83","0","15","0","10.14","0","12.22","0","10.57","0","14.79","0","14.53","0","10.88","0","12.22","1","12.36","0","11.6","1"
"08/15/2006","11.55","0","14.64","0","13.82","0","9.35","0","13.39","1","10.07","0","12.01","0","8.6","0","12.12","0","12.12","0","12.44","0","13.4","0","11.61","0","10.27","0","12.12","0","12.12","0","13.39","0","12.87","0","12.55","0","9.78","0","14.88","0","10.11","0","12.12","0","10.52","0","14.67","0","14.41","0","10.81","0","12.12","1","12.31","0","11.55","1"
"08/16/2006","11.53","0","14.65","0","13.94","0","9.36","0","13.4","2","10.08","0","11.98","0","8.57","0","12.12","0","12.12","0","12.39","0","13.39","0","11.57","0","10.3","0","12.12","0","12.12","0","13.4","2","12.83","2","12.65","1","9.36","1","14.65","1","10.08","1","12.12","0","10.5","0","14.6","0","14.4","0","10.77","0","12.12","1","12.32","0","11.53","1"
"08/17/2006","11.51","0","14.64","0","13.99","0","9.32","0","13.43","1","10.07","0","11.95","0","8.57","0","12.14","0","12.14","0","12.38","0","13.39","0","11.57","0","10.34","0","12.14","0","12.14","0","13.43","0","12.81","0","12.47","0","9.72","0","14.91","0","10.06","0","12.14","0","10.53","0","14.56","0","14.41","0","10.77","0","12.14","1","12.33","0","11.51","1"
"08/18/2006","11.51","0","14.65","0","14.02","0","9.32","0","13.44","1","10.08","0","11.97","0","8.58","0","12.15","0","12.15","0","12.4","0","13.4","0","11.6","0","10.37","0","12.15","0","12.15","0","13.44","0","12.82","0","12.49","0","9.75","0","14.96","0","10.08","0","12.15","0","10.57","0","14.57","0","14.43","0","10.8","0","12.15","1","12.36","0","11.51","1"
"08/19/2006","11.45","0","14.6","0","13.96","0","9.3","0","13.37","1","10.09","0","11.93","0","8.55","0","12.11","0","12.11","0","12.34","0","13.33","0","11.55","0","10.32","0","12.11","0","12.11","0","13.37","0","12.77","0","12.43","0","9.7","0","14.88","0","10.04","0","12.11","0","10.56","0","14.49","0","14.34","0","10.75","0","12.11","1","12.31","0","11.45","1"
"08/20/2006","11.44","0","14.56","0","13.94","0","9.31","0","13.36","1","10.22","0","11.92","0","8.54","0","12.09","0","12.09","0","12.33","0","13.31","0","11.52","0","10.3","0","12.09","0","12.09","0","13.36","0","12.78","0","12.42","0","9.69","0","14.88","0","10.03","0","12.09","0","10.55","0","14.44","0","14.29","0","10.73","0","12.09","1","12.24","0","11.44","1"
"08/21/2006","11.44","0","14.55","0","14.01","0","9.32","0","13.36","1","10.25","0","11.93","0","8.54","0","12.1","0","12.1","0","12.32","0","13.31","0","11.51","0","10.32","0","12.1","0","12.1","0","13.36","0","12.79","0","12.42","0","9.7","0","14.94","0","10.03","0","12.1","0","10.58","0","14.41","0","14.28","0","10.74","0","12.1","1","12.26","0","11.44","1"
"08/22/2006","11.49","0","14.58","0","14.05","0","9.36","0","13.4","1","10.29","0","11.98","0","8.58","0","12.13","0","12.13","0","12.39","0","13.38","0","11.59","0","10.37","0","12.13","0","12.13","0","13.4","0","12.84","0","12.49","0","9.76","0","15.03","0","10.09","0","12.13","0","10.65","0","14.5","0","14.33","0","10.82","0","12.13","1","12.26","0","11.49","1"
"08/23/2006","11.62","0","14.62","0","14.02","0","9.43","0","13.54","1","10.33","0","12.07","0","8.65","0","12.19","0","12.19","0","12.55","0","13.54","0","11.75","0","10.4","0","12.19","0","12.19","0","13.54","0","13","0","12.65","0","9.89","0","15.17","0","10.2","0","12.19","0","10.73","0","14.71","0","14.46","0","11.01","0","12.19","1","12.57","0","11.62","1"
"08/24/2006","11.58","0","14.53","0","13.85","0","9.4","0","13.44","1","10.3","0","11.98","0","8.62","0","12.12","0","12.12","0","12.46","0","13.45","0","11.69","0","10.31","0","12.12","0","12.12","0","13.44","0","12.93","0","12.56","0","9.81","0","15.01","0","10.14","0","12.12","0","10.66","0","14.65","0","14.34","0","10.91","0","12.12","1","12.49","0","11.58","1"
"08/25/2006","11.43","0","14.34","0","13.61","0","9.28","0","13.27","1","10.22","0","11.81","0","8.52","0","11.96","0","11.96","0","12.28","0","13.23","0","11.51","0","10.14","0","11.96","0","11.96","0","13.27","0","12.76","0","12.34","0","9.66","0","14.69","0","10.01","0","11.96","0","10.51","0","14.4","0","14.09","0","10.71","0","11.96","1","12.3","0","11.43","1"
"08/26/2006","11.39","0","14.4","0","14.71","0","9.54","0","13.37","1","10.85","0","12.15","0","8.47","0","12.73","0","12.73","0","13.97","0","13.23","0","12.13","0","10.05","0","12.73","0","12.73","0","13.37","0","12.66","0","13.69","0","10.37","0","16.23","0","10.9","0","12.73","0","12.67","0","15.34","0","14.84","0","10.98","0","12.73","1","12.19","0","11.39","1"
"08/27/2006","11.66","0","15.56","0","19.35","0","10.43","0","15.26","1","13.4","0","13.6","0","9.31","0","14.97","0","14.97","0","18.89","0","13.6","0","14.14","0","10.19","0","14.97","0","14.97","0","15.26","0","13.31","0","21.25","0","13.12","0","22.46","0","13.75","0","14.97","0","19.28","0","20.27","0","20.52","0","13.35","0","14.97","1","12.28","0","11.66","1"
"08/28/2006","11.71","0","15.82","0","19.63","0","10.54","0","16.44","2","13.51","0","13.61","0","9.82","0","14.8","0","14.8","0","18.69","0","13.7","0","14.02","0","10.37","0","14.8","0","14.8","0","16.44","2","14.01","2","21.23","1","13.14","1","21.23","1","13.7","1","14.8","0","19.04","0","20.79","0","21.17","0","13.98","0","14.8","1","12.28","0","11.71","1"
"08/29/2006","11.85","0","15.92","0","19.77","0","10.77","0","16.64","2","13.56","0","13.67","0","10.09","0","14.73","0","14.73","0","18.6","0","13.91","0","14.04","0","10.63","0","14.73","0","14.73","0","16.64","2","14.5","2","21.23","1","13.37","1","21.23","1","13.91","1","14.73","0","18.84","0","20.99","0","21.17","0","14.27","0","14.73","1","12.28","0","11.85","1"
"08/30/2006","11.99","0","15.9","0","19.75","0","10.9","0","16.47","1","13.52","0","13.69","0","10.18","0","14.66","0","14.66","0","18.42","0","14.09","0","14.04","0","10.82","0","14.66","0","14.66","0","16.47","0","14.74","0","21.21","0","13.31","0","22.44","0","13.53","0","14.66","0","18.56","0","21.03","0","21","0","14.37","0","14.66","1","12.28","0","11.99","1"
"08/31/2006","12.02","0","15.77","0","19.57","0","10.91","0","16.35","1","13.32","0","13.61","0","10.13","0","14.52","0","14.52","0","18.07","0","14.13","0","13.9","0","10.91","0","14.52","0","14.52","0","16.35","0","14.72","0","20.9","0","13.11","0","22.23","0","13.2","0","14.52","0","18.16","0","20.85","0","20.74","0","14.27","0","14.52","1","12.28","0","12.02","1"
"09/01/2006","11.89","0","15.5","0","19.22","0","10.75","0","16.03","1","12.96","0","13.36","0","9.95","0","14.27","0","14.27","0","17.46","0","13.95","0","13.55","0","10.81","0","14.27","0","14.27","0","16.03","0","14.49","0","20.48","0","12.77","0","21.81","0","12.83","0","14.27","0","17.66","0","20.35","0","20.34","0","13.95","0","14.27","1","12.28","0","11.89","1"
"09/02/2006","11.79","0","15.28","0","18.92","0","10.61","0","15.77","1","12.69","0","13.16","0","9.82","0","14.06","0","14.06","0","16.92","0","13.83","0","13.31","0","10.75","0","14.06","0","14.06","0","15.77","0","14.26","0","20.13","0","12.52","0","21.46","0","12.55","0","14.06","0","17.23","0","19.88","0","19.99","0","13.71","0","14.06","1","12.28","0","11.79","1"
"09/03/2006","11.85","0","15.28","0","18.86","0","10.64","0","15.69","1","12.66","0","13.22","0","9.83","0","14.02","0","14.02","0","16.67","0","13.95","0","13.31","0","10.88","0","14.02","0","14.02","0","15.69","0","14.29","0","19.96","0","12.4","0","21.39","0","12.35","0","14.02","0","16.96","0","19.71","0","19.82","0","13.7","0","14.02","1","12.28","0","11.85","1"
"09/04/2006","11.88","0","15.24","0","18.74","0","10.61","0","15.51","1","12.56","0","13.22","0","9.81","0","13.95","0","13.95","0","16.21","0","13.99","0","13.24","0","10.96","0","13.95","0","13.95","0","15.51","0","14.28","0","19.7","0","12.15","0","21.22","0","12.1","0","13.95","0","16.46","0","19.48","0","19.58","0","13.61","0","13.95","1","12.28","0","11.88","1"